Dewpoint
26 27 24 21 18 17 16 15 15 15 15 15 24 32 28 36 39 44 47 48 45 45 46 46 47 48 48 48 51 51 51 52 52 52 51 53 54 56 57 58 58 58 58 59 60 61 60 60 61 63 64 65 67 69 69 70 71 72 72 72 72 72 72 72 72 73 73 73 74 73 73 71 71 70 71 72 71 70 66 64 64 63 63 65 66 69 70
20 19 21 19 16 16 16 15 14 14 13 15 15 18 18 33 47 48 47 48 46 45 46 47 47 48 48 48 49 50 51 51 50 48 48 48 50 52 54 56 55 56 58 58 59 60 59 60 62 62 63 65 66 68 69 69 70 72 72 71 72 72 72 72 73 74 74 73 74 74 74 73 72 72 73 73 72 72 71 73 69 67 64 65 65 66 68
24 21 18 16 16 15 15 14 14 14 15 15 17 39 45 48 48 47 47 48 46 47 47 46 47 48 48 48 47 47 47 47 48 47 46 46 46 48 50 51 51 52 54 57 58 59 59 60 61 62 63 64 65 66 69 70 70 71 71 71 71 72 72 72 72 72 72 73 74 73 73 74 74 74 74 74 73 72 72 72 71 71 70 69 65 65 65
26 21 17 14 17 14 15 15 15 14 14 21 20 39 40 45 48 47 47 47 46 47 49 46 46 47 47 47 46 46 45 45 46 46 47 47 46 46 47 49 48 48 48 49 51 55 59 59 59 60 62 64 63 64 67 69 69 70 70 70 70 70 70 70 70 71 72 72 72 72 72 73 74 74 74 74 73 73 73 73 72 72 71 71 71 70 66
28 20 19 21 13 16 16 24 22 27 26 23 20 44 46 47 47 46 45 46 48 48 47 45 46 45 45 45 45 47 47 46 45 45 46 46 46 46 47 47 50 50 48 47 50 51 51 54 60 61 62 63 63 63 64 68 69 68 68 69 69 69 69 69 70 70 71 71 72 72 72 73 75 74 74 74 74 73 73 72 73 72 72 71 71 71 71
27 19 16 25 24 17 21 29 25 29 34 32 21 40 47 48 49 49 52 53 50 50 47 45 45 45 46 46 47 49 48 46 45 44 44 44 44 45 45 45 47 51 54 51 50 52 53 53 52 58 62 60 61 64 65 66 66 66 67 68 69 69 69 69 70 70 71 71 72 72 73 73 73 74 73 73 74 74 74 74 73 73 73 72 71 71 71
27 26 31 23 17 21 35 29 27 27 34 39 43 45 45 48 50 51 49 50 51 53 56 49 46 46 46 46 46 46 46 46 46 46 45 45 46 45 45 46 46 49 49 52 52 49 50 51 50 50 51 59 62 64 63 63 63 65 65 66 66 67 68 69 69 69 70 70 71 71 72 74 73 73 73 73 74 74 74 74 73 73 73 73 72 72 71
27 25 25 17 19 36 41 30 29 33 29 36 40 43 45 47 49 48 49 53 54 54 53 49 46 46 46 46 47 46 47 47 46 44 44 44 45 45 45 46 47 48 47 48 48 50 52 47 50 50 49 50 50 55 61 60 60 61 62 63 64 64 65 66 67 69 69 69 70 70 72 72 72 72 72 73 73 74 74 74 74 75 74 73 72 72 71
27 25 23 23 37 36 38 35 35 31 35 37 39 38 42 47 49 49 49 49 51 52 49 46 46 46 46 46 45 44 43 43 45 45 43 45 45 46 46 45 46 49 49 49 50 48 45 44 49 52 54 53 54 54 56 60 59 59 61 61 62 63 63 62 64 65 68 68 69 70 70 71 71 71 71 72 72 73 73 73 73 72 73 72 72 72 71
33 27 24 27 26 21 33 41 40 37 35 42 44 40 42 48 48 49 48 47 50 51 49 52 47 45 45 44 45 43 42 41 42 43 44 43 44 44 44 45 45 49 49 48 49 45 45 46 47 48 52 54 54 54 55 57 56 55 55 56 59 60 62 64 63 63 65 65 65 66 68 70 70 71 72 72 72 73 72 72 72 71 71 71 72 72 72
30 31 23 19 20 31 39 38 39 37 32 35 42 37 38 45 49 49 48 49 50 48 46 46 45 47 43 43 45 42 42 41 41 41 41 41 42 43 42 42 44 47 50 52 47 47 46 46 46 48 52 53 54 54 55 53 52 52 53 55 56 57 57 59 64 65 64 66 64 64 65 66 70 71 71 70 71 72 72 72 72 73 73 73 72 73 72
27 26 22 22 36 33 41 41 35 24 26 32 33 25 28 45 47 47 48 48 50 52 52 55 51 49 44 45 43 40 41 41 41 42 42 42 42 41 42 43 47 51 50 46 44 43 44 49 45 47 51 54 58 56 56 54 53 55 57 58 57 58 59 56 59 62 64 64 64 65 64 64 67 69 70 70 71 72 73 73 73 73 73 73 72 72 72
23 26 21 25 38 42 42 38 36 30 36 35 25 20 38 46 47 48 48 48 49 53 53 51 51 52 47 45 41 41 41 41 41 42 42 42 42 41 43 48 53 46 45 45 43 42 48 49 47 50 53 53 56 57 56 55 55 55 57 58 58 59 58 58 59 60 61 63 65 65 65 65 67 67 69 69 68 69 71 72 73 73 73 72 73 73 73
21 24 18 19 38 41 39 39 43 39 39 23 24 43 48 49 47 45 50 48 52 49 48 46 45 44 40 42 40 40 40 41 42 42 43 43 41 42 51 53 51 46 45 45 43 43 45 46 48 49 53 55 56 56 55 54 53 55 56 56 57 57 58 59 61 60 59 62 62 63 65 67 66 66 66 66 65 66 69 70 70 71 72 72 72 72 73
27 27 24 22 26 39 47 41 37 39 33 38 45 46 45 46 44 43 42 45 44 43 44 44 42 40 39 39 40 40 41 42 44 45 45 44 44 45 45 46 48 46 45 46 46 45 46 47 48 48 51 55 55 56 54 54 53 54 55 57 58 58 60 60 59 58 59 59 60 61 61 63 63 64 66 67 67 68 67 68 69 69 70 71 71 71 72
25 27 22 24 38 39 46 43 38 42 46 46 49 45 41 43 45 44 43 41 44 41 39 38 38 39 39 40 41 41 41 42 45 46 46 46 46 44 45 46 47 48 47 49 49 48 49 50 50 51 52 54 55 56 53 55 56 56 57 57 59 59 59 57 56 57 58 59 59 59 61 62 62 62 63 65 67 67 68 68 68 68 69 70 71 71 71
33 32 34 38 40 43 42 45 46 47 49 50 47 42 43 41 40 44 42 42 42 43 41 41 40 39 40 41 42 41 42 44 45 45 46 46 46 46 47 47 51 48 47 47 48 48 49 50 51 53 52 53 56 54 54 57 56 56 57 58 58 58 57 56 57 57 58 58 59 59 58 57 56 57 57 61 63 64 66 66 66 67 68 69 70 71 71
37 41 41 42 41 40 41 42 45 46 43 43 44 44 43 45 45 45 43 42 42 43 45 40 40 41 40 39 40 42 45 45 47 50 48 48 47 47 46 48 50 49 47 48 47 48 49 49 50 53 52 52 54 53 55 56 55 58 57 58 58 58 58 57 56 55 55 54 54 55 55 55 56 56 54 55 55 56 60 64 64 66 67 69 69 69 69
27 25 42 40 42 42 42 42 45 45 48 45 44 46 46 44 45 45 46 43 43 43 45 46 44 42 43 43 44 46 48 48 48 48 49 49 49 49 49 49 50 49 48 47 49 49 51 50 51 51 51 53 53 54 55 53 53 55 56 57 57 56 54 55 55 56 56 55 55 56 55 56 55 57 57 57 57 60 62 65 66 65 64 67 65 64 63
31 34 42 43 43 42 45 41 41 42 43 42 46 44 47 44 47 47 46 46 44 44 44 45 45 43 44 45 45 47 49 49 49 50 49 49 49 49 49 50 51 49 49 48 49 50 51 51 52 52 52 51 52 53 54 52 54 55 56 57 55 54 54 54 55 56 56 60 59 56 55 54 53 52 54 58 56 56 56 58 60 61 61 61 60 59 57
38 40 44 45 46 43 43 42 42 42 43 43 41 42 43 45 44 45 46 46 45 46 44 46 45 44 44 46 46 48 48 48 50 48 48 48 49 48 49 49 51 49 50 50 50 50 51 51 51 51 51 51 51 50 52 52 53 53 55 54 54 52 51 52 51 55 54 52 52 52 53 53 53 54 55 54 54 55 54 57 58 57 56 56 58 56 55
36 41 43 46 39 39 43 44 45 45 46 43 41 40 41 44 43 43 43 45 43 43 44 44 44 46 45 45 46 47 48 48 48 48 48 47 48 48 48 49 48 48 48 47 49 50 50 50 51 51 50 50 52 50 51 51 52 52 54 54 53 51 51 52 52 53 54 52 53 55 54 54 54 54 58 53 52 54 54 58 56 52 51 55 56 55 55
39 44 47 47 46 46 46 47 46 47 47 46 45 39 40 44 45 43 42 43 44 44 44 45 44 47 46 46 46 45 45 47 49 48 48 48 47 48 47 47 47 48 49 48 51 50 50 51 51 50 51 50 50 50 50 51 51 52 52 53 53 52 53 51 52 53 54 53 53 54 54 53 54 55 54 54 49 49 51 53 50 46 45 45 46 48 56
48 49 49 50 47 46 48 47 48 47 49 48 45 48 45 44 44 45 42 42 42 45 44 44 46 46 47 45 45 45 46 46 46 48 48 48 47 48 47 46 48 49 49 50 49 49 49 50 49 50 49 49 49 49 50 50 52 51 52 52 51 51 51 52 53 54 53 53 55 55 54 53 53 54 54 55 55 51 49 49 48 46 45 45 44 46 47
45 50 51 49 48 49 48 48 48 48 49 50 48 48 49 50 48 46 45 45 44 44 44 43 43 45 45 44 44 44 46 45 47 48 49 50 46 47 48 49 49 49 48 48 48 48 48 48 49 50 49 49 50 50 51 50 51 51 52 52 51 50 51 52 53 54 54 53 54 54 54 54 55 55 54 53 52 53 54 51 50 49 48 47 46 46 45
48 48 49 50 49 48 49 47 46 45 45 46 47 47 52 53 52 48 48 48 46 44 44 42 42 43 45 45 45 45 46 46 50 48 45 45 46 48 47 47 48 48 47 47 48 48 48 49 49 49 50 50 50 51 51 51 52 52 52 52 52 52 52 52 52 52 53 53 53 54 54 55 55 55 54 54 53 53 53 54 54 52 50 49 48 48 48
49 50 49 47 47 47 47 46 46 50 50 50 48 49 51 51 52 52 50 48 49 45 45 43 44 45 45 47 47 45 45 45 47 45 43 44 48 47 46 47 47 48 48 48 48 50 49 50 50 50 50 51 52 51 50 50 51 51 51 51 51 53 53 54 52 52 51 51 52 53 55 55 55 55 54 55 55 54 53 53 53 53 53 54 51 48 51
48 48 48 45 45 46 48 49 50 50 50 49 50 50 48 51 52 49 48 47 47 48 48 45 46 44 45 45 43 45 47 48 46 46 47 46 45 45 46 47 47 47 48 49 49 49 50 50 50 50 50 50 50 50 49 49 50 50 51 50 50 50 51 52 52 51 52 52 53 53 52 52 52 52 52 52 51 51 51 52 53 52 53 54 55 53 51
49 49 49 48 48 49 49 49 49 48 48 49 51 50 49 48 51 50 50 50 49 48 48 47 49 45 46 46 46 46 43 43 44 45 45 46 48 46 47 47 47 47 47 49 49 49 49 49 49 48 49 49 49 50 50 49 49 49 49 50 49 49 49 50 51 51 51 52 52 52 53 52 51 50 51 51 52 51 50 50 51 52 52 52 53 55 55
50 49 48 48 49 49 48 48 47 48 48 49 49 50 50 49 50 50 49 50 50 49 50 50 48 47 47 48 48 46 45 46 44 44 45 46 46 47 47 47 47 47 47 48 48 48 48 48 48 48 49 49 49 50 50 50 49 49 49 49 49 49 49 50 50 51 52 52 52 53 52 52 52 51 52 51 51 51 51 50 51 51 50 51 55 55 54
48 48 48 49 49 48 47 47 48 48 48 48 49 49 50 50 50 50 49 49 50 51 50 49 48 48 47 47 46 45 45 45 45 46 47 47 47 47 48 47 47 47 47 47 47 47 47 47 47 47 49 50 50 50 49 48 48 48 48 48 48 50 51 51 51 51 51 53 53 52 52 52 51 52 52 52 51 51 50 50 50 50 50 50 49 50 51
46 47 48 47 47 46 45 46 46 46 49 49 49 48 49 49 49 50 51 51 50 51 51 52 52 51 50 45 45 45 44 44 46 46 46 47 48 47 46 46 46 48 45 46 46 47 47 47 47 48 49 49 49 48 47 47 47 47 47 49 47 47 48 51 51 51 52 53 53 52 53 52 51 51 51 50 50 50 50 50 50 50 49 50 50 50 51
45 44 44 46 46 46 45 46 46 47 48 48 48 49 49 49 50 50 50 51 50 51 51 50 49 50 50 46 44 44 44 45 44 45 46 45 45 45 46 46 45 45 45 46 45 46 46 47 47 47 47 48 48 48 47 46 47 47 47 46 46 46 48 49 50 50 51 51 52 51 52 52 52 52 51 51 51 51 50 50 50 51 52 52 52 51 51
44 44 44 44 44 45 45 46 47 47 49 49 49 49 50 50 50 49 50 51 51 51 49 49 50 49 50 47 44 43 43 44 45 45 45 45 45 45 45 46 45 45 45 45 45 46 46 46 46 46 47 47 47 47 47 47 46 46 45 46 46 46 47 47 48 49 50 51 51 52 51 52 51 52 52 52 51 52 53 53 53 53 52 52 52 53 52
45 44 43 43 43 42 43 46 46 47 47 47 49 48 49 49 48 48 50 50 49 49 49 50 50 51 49 48 45 43 43 43 44 44 44 45 44 44 44 44 44 45 44 46 47 46 46 45 46 46 46 47 46 47 46 45 45 45 45 46 48 47 46 47 46 46 46 47 49 50 51 51 51 52 53 52 52 53 52 52 52 52 52 52 52 53 53
45 44 44 43 44 43 41 44 49 48 48 48 48 49 49 47 47 48 48 48 48 48 48 48 48 49 46 47 45 43 42 42 43 43 44 44 44 44 44 43 43 43 44 45 46 45 45 45 46 47 47 46 45 45 46 45 45 45 46 45 45 45 46 46 46 46 46 47 48 48 48 50 51 53 53 53 53 53 53 53 53 53 53 52 52 52 52
44 44 44 43 43 43 43 43 48 50 49 49 49 48 49 48 47 49 49 47 48 48 49 48 48 48 48 47 48 44 44 44 44 44 44 44 44 43 43 43 43 43 43 43 44 44 45 45 46 45 45 46 44 44 43 46 44 44 45 44 44 44 44 44 44 44 43 45 46 46 49 49 49 50 51 52 52 52 52 52 52 53 53 53 53 53 53
44 43 43 43 43 43 44 44 49 50 50 50 50 50 49 48 48 47 47 48 48 48 48 48 48 48 48 47 47 45 43 44 43 43 43 43 43 42 42 43 44 43 43 43 44 44 44 46 44 45 44 45 43 42 43 44 45 43 43 42 43 42 42 41 41 42 43 43 46 45 46 46 46 47 48 49 50 51 52 52 53 53 53 53 54 54 54
42 43 43 43 43 43 42 42 44 49 49 49 49 50 51 50 49 46 47 48 48 49 48 47 46 46 45 44 43 43 42 42 42 42 42 42 43 41 41 45 45 45 45 44 43 43 46 44 45 45 45 43 42 41 42 44 46 42 42 42 42 42 42 42 42 45 45 45 46 46 46 48 48 49 49 50 51 52 53 53 53 53 54 54 55 55 56
41 42 42 42 41 42 43 44 49 49 49 50 49 49 50 50 50 49 49 48 48 48 46 44 44 43 44 44 43 42 42 42 43 42 42 42 42 42 44 44 45 46 45 43 45 44 44 42 43 43 44 43 42 42 43 43 44 43 41 41 41 42 42 45 45 45 45 46 46 47 47 48 48 48 49 49 49 50 50 51 52 54 54 55 55 55 55
41 41 41 41 42 42 41 49 48 49 49 49 48 49 50 50 50 49 48 47 48 47 45 44 43 43 42 42 42 42 42 43 43 42 43 43 42 40 41 42 44 45 44 44 45 45 44 42 45 41 41 42 41 43 42 44 43 41 41 41 41 41 43 44 45 45 45 45 45 45 46 46 47 46 48 48 49 49 50 51 51 52 52 52 51 51 50
41 41 41 41 41 41 42 46 48 48 48 49 49 47 48 49 48 48 48 47 45 45 44 45 45 43 42 42 42 43 42 42 42 43 44 44 44 42 41 42 43 44 43 43 43 43 43 42 42 43 40 41 42 44 43 43 41 40 40 40 41 42 42 42 42 42 43 43 43 44 45 46 47 47 48 47 47 48 48 48 48 48 48 48 48 47 47
41 41 42 42 42 42 45 48 48 47 48 48 47 47 48 48 47 47 45 45 44 43 42 43 44 43 43 42 42 42 42 43 43 43 43 44 45 44 42 42 44 44 43 43 45 43 42 40 40 41 43 42 42 42 42 40 39 39 39 40 41 40 41 41 41 41 41 41 42 42 44 45 45 44 45 44 45 45 45 45 46 46 46 45 45 46 46
42 42 42 42 43 44 46 47 45 47 47 48 50 49 49 49 47 45 44 44 43 43 41 41 42 42 43 42 42 42 42 42 42 42 42 42 43 44 45 43 42 42 42 43 43 42 42 42 41 41 42 42 43 42 40 39 38 39 39 39 39 39 40 40 40 40 40 40 41 41 42 43 42 41 41 42 43 44 45 45 45 45 45 45 45 45 45
43 43 44 43 44 46 46 47 47 47 47 48 49 49 48 48 46 44 44 44 43 42 43 42 42 42 42 42 42 42 43 43 42 42 40 41 41 42 43 41 45 43 41 41 42 42 42 41 42 42 42 41 42 41 40 40 40 40 38 39 39 39 39 38 39 39 40 39 40 40 41 40 40 40 39 41 42 43 43 44 45 45 45 45 45 44 44
43 44 45 45 46 46 46 48 48 49 48 48 48 48 48 49 47 44 44 43 43 42 43 43 43 42 42 41 43 43 43 43 42 43 42 41 41 42 44 42 43 41 41 40 42 42 41 41 41 40 41 41 41 40 39 40 40 40 38 38 38 39 38 38 38 38 38 38 39 40 39 38 39 38 38 39 40 42 42 43 44 43 43 43 44 44 44
43 44 45 46 46 46 47 48 48 47 47 47 46 47 48 48 47 45 44 43 43 44 43 43 43 43 44 44 44 42 40 41 42 43 42 43 46 45 45 43 42 40 39 41 41 41 41 41 41 40 40 39 40 40 39 39 39 40 39 38 38 38 38 37 37 37 36 37 38 39 39 39 37 37 39 38 39 40 40 41 41 41 42 43 43 43 43
45 45 46 46 46 47 47 48 47 46 46 46 45 45 46 48 47 47 45 43 43 43 43 43 43 44 44 44 44 44 43 41 39 41 44 41 41 42 43 42 42 39 41 40 41 42 41 41 41 40 40 39 41 40 40 38 39 40 39 39 39 39 38 38 38 37 37 36 36 36 36 35 35 36 37 37 39 39 39 40 40 40 40 41 41 42 42
45 46 46 46 47 47 47 46 45 46 45 45 46 47 47 47 47 47 45 43 42 41 41 42 43 43 44 46 45 43 45 45 43 42 43 43 44 41 42 45 41 40 42 41 40 41 42 41 40 40 39 39 39 39 39 38 39 40 39 39 40 40 39 39 39 38 38 37 36 36 36 36 35 36 37 38 39 38 38 39 38 39 39 40 41 42 42
45 46 46 46 46 46 46 47 47 47 46 45 47 47 45 45 45 43 43 40 41 42 40 41 42 44 43 42 43 44 45 45 46 45 45 44 44 41 43 43 43 41 40 41 41 40 37 38 40 39 40 40 40 40 40 39 40 40 40 40 40 40 41 39 39 38 39 39 37 37 36 36 36 36 37 37 38 37 37 38 38 38 38 39 40 41 41
46 46 45 46 45 44 46 47 48 47 47 46 47 47 43 42 42 43 40 41 40 40 39 40 41 41 41 41 42 42 44 44 45 42 45 45 42 44 44 44 43 43 40 42 41 38 37 39 40 40 40 39 39 39 39 39 39 40 40 40 39 39 40 40 40 39 39 39 39 38 37 38 37 36 36 37 37 37 37 38 37 37 37 38 38 39 39
46 46 47 44 44 46 47 47 49 50 47 47 48 47 46 45 42 43 41 42 40 40 39 39 38 39 39 39 41 41 41 40 43 42 44 45 43 41 44 44 42 43 41 41 39 39 38 40 40 39 39 39 39 39 39 39 39 39 40 40 40 41 41 41 40 40 39 39 39 38 38 38 38 37 37 37 37 37 37 37 37 37 37 37 37 38 38